Date String (YYYY-MM-DD hh:mm:ss) UTC,Instrument flags,absolute air pressure of the measurement (hPa),sample flow rate (lpm),inlet stack bypass flow (lpm),air temperature of the measurement (°C),ambient temperature measured by the external sensor (°C),aerosol sample conditioner tube jacket temperature (°C),OPC LED temperature (°C),internal box temperature (°C),relative humidity of the measurement (%),span deviation,mass concentration of particles derived from Lorenz-Mie calculation of OPC scattering (μg/m³),mass concentration of particles derived from Lorenz-Mie calculation of OPC scattering (μg/m³),mass concentration of particles derived from Lorenz-Mie calculation of OPC scattering (μg/m³)
DateTimeUTC,F1_M11,P_M11,Q1_M11,Q2_M11,T1_M11,T2_M11,T3_M11,T4_M11,T5_M11,U1_M11,ZSPAN_M11,X0_M11,X2_M11,X1_M11
2023-06-25 09:00:00,SystemResetWarning,0836.2,5.00,000.00,030.2,028.6,000.0,038.6,031.7,25.5,0000.0,0011.31,0003.35,0001.67
2023-06-25 09:01:00,SystemResetWarning,0836.1,5.00,000.00,030.2,028.7,000.0,038.7,031.7,25.5,0000.0,0010.86,0003.32,0001.68
2023-06-25 09:02:00,SystemResetWarning,0836.1,5.00,000.00,030.2,028.7,000.0,038.7,031.7,25.5,0000.0,0010.96,0003.31,0001.68
2023-06-25 09:03:00,SystemResetWarning,0836.1,5.00,000.00,030.2,028.7,000.0,038.7,031.7,25.5,0000.0,0011.24,0003.24,0001.66
2023-06-25 09:04:00,SystemResetWarning,0836.1,5.00,000.00,030.2,028.7,000.0,038.7,031.7,25.4,0000.0,0010.70,0003.17,0001.65
2023-06-25 09:05:00,SystemResetWarning,0836.1,5.00,000.00,030.2,028.7,000.0,038.7,031.7,25.3,0000.0,0010.88,0003.17,0001.66
2023-06-25 09:06:00,SystemResetWarning,0836.1,5.00,000.00,030.2,028.7,000.0,038.7,031.7,25.3,0000.0,0011.34,0003.19,0001.67
2023-06-25 09:07:00,SystemResetWarning,0836.2,5.00,000.00,030.2,028.7,000.0,038.7,031.7,25.4,0000.0,0011.75,0003.19,0001.70
2023-06-25 09:08:00,SystemResetWarning,0836.2,4.99,000.00,030.2,028.7,000.0,038.7,031.8,25.4,0000.0,0011.37,0003.17,0001.72
2023-06-25 09:09:00,SystemResetWarning,0836.1,5.00,000.00,030.3,028.7,000.0,038.8,031.8,25.3,0000.0,0012.36,0003.19,0001.72
2023-06-25 09:10:00,SystemResetWarning,0836.1,5.00,000.00,030.3,028.7,000.0,038.8,031.8,25.3,0000.0,0012.02,0003.20,0001.73
2023-06-25 09:11:00,SystemResetWarning,0836.1,5.00,000.00,030.3,028.7,000.0,038.8,031.8,25.3,0000.0,0012.96,0003.26,0001.74
2023-06-25 09:12:00,SystemResetWarning,0836.1,5.00,000.00,030.3,028.7,000.0,038.8,031.8,25.3,0000.0,0012.90,0003.29,0001.76
2023-06-25 09:13:00,SystemResetWarning,0836.1,5.00,000.00,030.3,028.7,000.0,038.8,031.8,25.3,0000.0,0012.75,0003.33,0001.76
2023-06-25 09:14:00,SystemResetWarning,0836.1,5.00,000.00,030.3,028.7,000.0,038.8,031.8,25.3,0000.0,0012.21,0003.34,0001.79
2023-06-25 09:15:00,SystemResetWarning,0836.1,5.00,000.00,030.3,028.7,000.0,038.8,031.8,25.3,0000.0,0012.33,0003.37,0001.79
2023-06-25 09:16:00,SystemResetWarning,0836.1,5.00,000.00,030.3,028.8,000.0,038.9,031.9,25.3,0000.0,0012.30,0003.36,0001.79
2023-06-25 09:17:00,SystemResetWarning,0836.1,5.00,000.00,030.4,028.8,000.0,038.9,031.9,25.2,0000.0,0012.05,0003.41,0001.81
2023-06-25 09:18:00,SystemResetWarning,0836.1,5.00,000.00,030.4,028.8,000.0,038.9,031.8,25.1,0000.0,0011.43,0003.40,0001.82
2023-06-25 09:19:00,SystemResetWarning,0836.1,5.00,000.00,030.4,028.8,000.0,038.9,031.9,25.1,0000.0,0011.31,0003.42,0001.84
2023-06-25 09:20:00,SystemResetWarning,0836.1,5.01,000.00,030.4,028.8,000.0,038.9,031.9,25.2,0000.0,0010.59,0003.42,0001.85
2023-06-25 09:21:00,SystemResetWarning,0836.1,5.00,000.00,030.4,028.8,000.0,038.9,031.9,25.2,0000.0,0010.55,0003.38,0001.84
2023-06-25 09:22:00,SystemResetWarning,0836.1,5.00,000.00,030.4,028.8,000.0,038.9,031.9,25.1,0000.0,0009.85,0003.34,0001.85
2023-06-25 09:23:00,SystemResetWarning,0836.1,5.00,000.00,030.4,028.8,000.0,038.9,031.9,25.1,0000.0,0010.14,0003.32,0001.86
2023-06-25 09:24:00,SystemResetWarning,0836.1,5.00,000.00,030.4,028.8,000.0,038.9,031.9,25.1,0000.0,0009.95,0003.26,0001.87
2023-06-25 09:25:00,SystemResetWarning,0836.1,5.00,000.00,030.4,028.8,000.0,038.9,031.9,25.1,0000.0,0009.96,0003.27,0001.88
2023-06-25 09:26:00,SystemResetWarning,0836.1,4.99,000.00,030.4,028.8,000.0,039.0,031.9,25.1,0000.0,0009.84,0003.28,0001.90
2023-06-25 09:27:00,SystemResetWarning,0836.1,5.00,000.00,030.4,028.8,000.0,039.0,031.9,25.1,0000.0,0009.40,0003.29,0001.91
2023-06-25 09:28:00,SystemResetWarning,0836.1,5.01,000.00,030.5,028.9,000.0,039.0,031.9,25.1,0000.0,0009.84,0003.29,0001.90
2023-06-25 09:29:00,SystemResetWarning,0836.1,5.00,000.00,030.5,028.9,000.0,039.0,031.9,25.1,0000.0,0010.29,0003.35,0001.89
2023-06-25 09:30:00,SystemResetWarning,0836.1,5.00,000.00,030.5,028.9,000.0,039.0,031.9,25.1,0000.0,0011.52,0003.35,0001.90
2023-06-25 09:31:00,SystemResetWarning,0836.1,5.00,000.00,030.5,028.9,000.0,039.0,032.0,25.0,0000.0,0011.89,0003.38,0001.91
2023-06-25 09:32:00,SystemResetWarning,0836.1,5.00,000.00,030.5,028.8,000.0,039.0,032.0,25.0,0000.0,0012.61,0003.46,0001.94
2023-06-25 09:33:00,SystemResetWarning,0836.1,4.98,000.00,030.5,026.9,000.0,038.9,032.0,25.0,0000.0,0012.84,0003.51,0001.96
2023-06-25 09:34:00,SystemResetWarning,0836.0,5.02,000.00,030.4,024.9,000.0,038.9,031.9,25.0,0000.0,0012.31,0003.54,0001.98
2023-06-25 09:35:00,SystemResetWarning,0836.1,5.00,000.00,030.3,024.6,000.0,038.8,031.5,25.2,0000.0,0012.41,0003.56,0001.98
2023-06-25 09:36:00,SystemResetWarning,0836.1,5.00,000.00,030.2,025.0,000.0,038.8,031.2,25.4,0000.0,0012.77,0003.56,0001.98
2023-06-25 09:37:00,SystemResetWarning,0836.1,5.00,000.00,030.1,025.5,000.0,038.8,031.2,25.6,0000.0,0013.04,0003.54,0002.00
2023-06-25 09:38:00,SystemResetWarning,0836.0,5.00,000.00,030.0,026.0,000.0,038.7,031.2,25.7,0000.0,0013.63,0003.60,0002.01
2023-06-25 09:39:00,SystemResetWarning,0836.1,5.00,000.00,030.0,026.4,000.0,038.7,031.2,25.7,0000.0,0013.35,0003.60,0002.02
2023-06-25 09:40:00,SystemResetWarning,0836.1,5.00,000.00,030.0,026.7,000.0,038.7,031.2,25.8,0000.0,0012.89,0003.55,0002.04
2023-06-25 09:41:00,SystemResetWarning,0836.1,4.98,000.00,029.9,027.0,000.0,038.7,031.2,25.9,0000.0,0012.15,0003.59,0002.06
2023-06-25 09:42:00,SystemResetWarning,0836.1,5.00,000.00,029.9,027.3,000.0,038.6,031.3,25.8,0000.0,0011.22,0003.60,0002.07
2023-06-25 09:43:00,SystemResetWarning,0836.0,5.00,000.00,029.9,027.5,000.0,038.6,031.3,25.8,0000.0,0010.85,0003.61,0002.09
2023-06-25 09:44:00,SystemResetWarning,0836.0,5.00,000.00,029.9,027.6,000.0,038.6,031.3,25.8,0000.0,0010.77,0003.65,0002.12
2023-06-25 09:45:00,SystemResetWarning,0836.0,5.01,000.00,029.9,027.8,000.0,038.6,031.3,25.8,0000.0,0011.35,0003.72,0002.11
2023-06-25 09:46:00,SystemResetWarning,0836.0,5.00,000.00,029.9,027.9,000.0,038.6,031.3,25.8,0000.0,0011.34,0003.75,0002.13
2023-06-25 09:47:00,SystemResetWarning,0836.0,5.00,000.00,029.9,027.9,000.0,038.6,031.4,25.8,0000.0,0011.33,0003.83,0002.15
2023-06-25 09:48:00,SystemResetWarning,0836.0,4.99,000.00,029.9,028.0,000.0,038.6,031.4,25.7,0000.0,0010.76,0003.84,0002.16
2023-06-25 09:49:00,SystemResetWarning,0836.0,4.99,000.00,029.9,028.1,000.0,038.5,031.4,25.7,0000.0,0010.85,0003.84,0002.17
2023-06-25 09:50:00,SystemResetWarning,0835.9,5.01,000.00,030.0,028.1,000.0,038.5,031.4,25.7,0000.0,0011.07,0003.80,0002.17
2023-06-25 09:51:00,SystemResetWarning,0835.9,5.01,000.00,030.0,028.2,000.0,038.5,031.4,25.7,0000.0,0011.56,0003.80,0002.18
2023-06-25 09:52:00,SystemResetWarning,0835.9,5.01,000.00,030.0,028.2,000.0,038.6,031.4,25.7,0000.0,0011.49,0003.78,0002.18
2023-06-25 09:53:00,SystemResetWarning,0835.9,5.00,000.00,030.0,028.2,000.0,038.6,031.5,25.6,0000.0,0011.84,0003.75,0002.17
2023-06-25 09:54:00,SystemResetWarning,0835.9,5.00,000.00,030.0,028.3,000.0,038.6,031.5,25.7,0000.0,0012.17,0003.76,0002.17
2023-06-25 09:55:00,SystemResetWarning,0835.9,4.99,000.00,030.0,028.3,000.0,038.6,031.5,25.7,0000.0,0012.55,0003.74,0002.16
2023-06-25 09:56:00,SystemResetWarning,0836.0,4.99,000.00,030.0,028.3,000.0,038.6,031.5,25.7,0000.0,0012.04,0003.69,0002.17
2023-06-25 09:57:00,SystemResetWarning,0835.9,5.00,000.00,030.0,028.4,000.0,038.6,031.5,25.7,0000.0,0012.13,0003.68,0002.18
2023-06-25 09:58:00,SystemResetWarning,0835.9,5.00,000.00,030.0,028.4,000.0,038.6,031.6,25.6,0000.0,0011.93,0003.64,0002.20
2023-06-25 09:59:00,SystemResetWarning,0835.9,5.01,000.00,030.0,028.4,000.0,038.6,031.5,25.6,0000.0,0011.95,0003.65,0002.20
